| time (UTC) | temp F | wind direction | speed MPH | gust MPH | rain 1hr in | rain 24hr in | rain mn in | humidity % | barometer mb |
| 20260502151520 | 49 | 300 | 3.0 | 10.0 | 0.00 | 0.03 | 0.00 | 50 | 1015.7 |
| 20260502123014 | 42 | 323 | 3.0 | 7.0 | 0.00 | 0.03 | 0.00 | 64 | 1016.3 |
| 20260502121511 | 41 | 266 | 2.0 | 4.0 | 0.00 | 0.03 | 0.00 | 65 | 1016.3 |
| 20260502114520 | 39 | 268 | 1.0 | 5.0 | 0.00 | 0.03 | 0.00 | 71 | 1016.3 |
| 20260502113020 | 38 | 311 | 1.0 | 7.0 | 0.00 | 0.03 | 0.00 | 73 | 1016.2 |
| 20260502111519 | 37 | 288 | 2.0 | 3.0 | 0.00 | 0.03 | 0.00 | 76 | 1016.2 |
| 20260502110023 | 35 | 294 | 0.0 | 2.0 | 0.00 | 0.03 | 0.00 | 83 | 1016.2 |
| 20260502104514 | 33 | 294 | 0.0 | 2.0 | 0.00 | 0.03 | 0.00 | 86 | 1016.0 |
| 20260502103012 | 32 | 294 | 0.0 | 2.0 | 0.00 | 0.03 | 0.00 | 86 | 1015.9 |
| 20260502101508 | 32 | 294 | 0.0 | 2.0 | 0.00 | 0.03 | 0.00 | 86 | 1015.8 |
| 20260502091519 | 33 | 339 | 0.0 | 2.0 | 0.00 | 0.03 | 0.00 | 82 | 1015.3 |
| 20260502071510 | 35 | 21 | 2.0 | 6.0 | 0.00 | 0.03 | 0.00 | 78 | 1014.7 |
| 20260502070009 | 35 | 12 | 0.0 | 4.0 | 0.00 | 0.03 | 0.00 | 78 | 1014.9 |
| 20260502064517 | 35 | 336 | 1.0 | 5.0 | 0.00 | 0.03 | 0.00 | 79 | 1015.0 |
| 20260502063022 | 36 | 321 | 0.0 | 2.0 | 0.00 | 0.03 | 0.00 | 78 | 1015.0 |
| 20260502061516 | 36 | 320 | 0.0 | 3.0 | 0.00 | 0.03 | 0.00 | 77 | 1015.1 |
| 20260502060016 | 36 | 352 | 1.0 | 5.0 | 0.00 | 0.03 | 0.00 | 76 | 1015.1 |
| 20260502054516 | 37 | 321 | 0.0 | 4.0 | 0.00 | 0.03 | 0.00 | 76 | 1015.1 |
| 20260502053012 | 38 | 290 | 2.0 | 6.0 | 0.00 | 0.03 | 0.00 | 74 | 1015.2 |
| 20260502051519 | 38 | 320 | 1.0 | 4.0 | 0.00 | 0.03 | 0.00 | 74 | 1015.1 |
| 20260502050017 | 38 | 16 | 2.0 | 7.0 | 0.00 | 0.03 | 0.00 | 73 | 1015.0 |
| 20260502044519 | 39 | 30 | 4.0 | 8.0 | 0.00 | 0.03 | 0.00 | 73 | 1014.7 |
| 20260502043017 | 40 | 360 | 2.0 | 6.0 | 0.00 | 0.03 | 0.00 | 74 | 1014.5 |
| 20260502041517 | 40 | 5 | 1.0 | 5.0 | 0.00 | 0.03 | 0.00 | 78 | 1014.2 |
| 20260502040029 | 41 | 344 | 1.0 | 3.0 | 0.00 | 0.03 | 0.00 | 80 | 1014.2 |
| 20260502034512 | 42 | 336 | 1.0 | 3.0 | 0.00 | 0.03 | 0.03 | 85 | 1014.3 |
| 20260502033018 | 42 | 290 | 1.0 | 5.0 | 0.00 | 0.03 | 0.03 | 84 | 1014.3 |
| 20260502031515 | 42 | 315 | 1.0 | 4.0 | 0.00 | 0.03 | 0.03 | 83 | 1014.2 |
| 20260502030017 | 42 | 360 | 2.0 | 6.0 | 0.00 | 0.03 | 0.03 | 81 | 1014.2 |
| 20260502024533 | 42 | 283 | 1.0 | 7.0 | 0.00 | 0.03 | 0.03 | 80 | 1014.3 |
| 20260502023016 | 41 | 285 | 3.0 | 6.0 | 0.00 | 0.03 | 0.03 | 80 | 1014.4 |
| 20260502021514 | 42 | 299 | 2.0 | 7.0 | 0.00 | 0.03 | 0.03 | 79 | 1014.4 |
| 20260502020013 | 42 | 297 | 2.0 | 5.0 | 0.00 | 0.03 | 0.03 | 81 | 1014.3 |
| 20260502014523 | 42 | 241 | 2.0 | 4.0 | 0.00 | 0.03 | 0.03 | 82 | 1014.2 |
| 20260502013004 | 42 | 294 | 1.0 | 4.0 | 0.00 | 0.03 | 0.03 | 84 | 1014.1 |
| 20260502011518 | 42 | 313 | 1.0 | 4.0 | 0.00 | 0.03 | 0.03 | 84 | 1013.9 |
| 20260502010017 | 42 | 319 | 2.0 | 6.0 | 0.00 | 0.03 | 0.03 | 83 | 1013.8 |
| 20260502004517 | 42 | 321 | 3.0 | 10.0 | 0.00 | 0.03 | 0.03 | 84 | 1013.5 |
| 20260502003018 | 42 | 346 | 3.0 | 8.0 | 0.00 | 0.03 | 0.03 | 83 | 1013.4 |
| 20260502001512 | 43 | 350 | 2.0 | 9.0 | 0.00 | 0.03 | 0.03 | 83 | 1013.0 |
| 20260502000010 | 44 | 309 | 3.0 | 8.0 | 0.00 | 0.03 | 0.03 | 82 | 1012.9 |
| 20260501234511 | 44 | 352 | 3.0 | 5.0 | 0.00 | 0.04 | 0.03 | 80 | 1012.7 |
| 20260501233016 | 45 | 281 | 2.0 | 6.0 | 0.00 | 0.04 | 0.03 | 77 | 1012.6 |
| 20260501231520 | 45 | 298 | 3.0 | 7.0 | 0.00 | 0.04 | 0.03 | 75 | 1012.4 |
| 20260501230017 | 46 | 352 | 2.0 | 5.0 | 0.00 | 0.04 | 0.03 | 75 | 1012.4 |
| 20260501224517 | 46 | 336 | 1.0 | 4.0 | 0.00 | 0.04 | 0.03 | 74 | 1012.3 |
| 20260501223013 | 46 | 263 | 1.0 | 4.0 | 0.00 | 0.04 | 0.03 | 76 | 1012.3 |
| 20260501221508 | 46 | 262 | 1.0 | 3.0 | 0.00 | 0.04 | 0.03 | 75 | 1012.1 |
| 20260501220022 | 46 | 266 | 2.0 | 5.0 | 0.00 | 0.04 | 0.03 | 76 | 1012.1 |
| 20260501214517 | 46 | 264 | 1.0 | 4.0 | 0.00 | 0.04 | 0.03 | 76 | 1012.1 |
| 20260501213017 | 46 | 255 | 2.0 | 5.0 | 0.00 | 0.04 | 0.03 | 78 | 1012.1 |
| 20260501211518 | 46 | 241 | 2.0 | 7.0 | 0.00 | 0.04 | 0.03 | 80 | 1012.0 |
| 20260501210028 | 45 | 236 | 3.0 | 7.0 | 0.00 | 0.04 | 0.03 | 79 | 1012.0 |
| 20260501204518 | 45 | 261 | 2.0 | 6.0 | 0.00 | 0.04 | 0.03 | 82 | 1012.1 |
| 20260501203033 | 44 | 240 | 1.0 | 2.0 | 0.00 | 0.04 | 0.03 | 83 | 1012.3 |
| 20260501201517 | 44 | 360 | 0.0 | 2.0 | 0.00 | 0.04 | 0.03 | 84 | 1012.3 |
| 20260501200017 | 44 | 28 | 0.0 | 2.0 | 0.00 | 0.04 | 0.03 | 85 | 1012.3 |
| 20260501194520 | 43 | 27 | 0.0 | 2.0 | 0.01 | 0.04 | 0.03 | 85 | 1012.4 |
| 20260501193018 | 43 | 40 | 0.0 | 2.0 | 0.01 | 0.04 | 0.03 | 85 | 1012.7 |
| 20260501191515 | 43 | 24 | 1.0 | 3.0 | 0.01 | 0.04 | 0.03 | 85 | 1012.6 |
| 20260501190020 | 43 | 36 | 1.0 | 4.0 | 0.01 | 0.04 | 0.03 | 85 | 1012.8 |
| 20260501184544 | 44 | 74 | 1.0 | 5.0 | 0.00 | 0.03 | 0.02 | 84 | 1013.0 |
| 20260501183016 | 44 | 344 | 0.0 | 3.0 | 0.00 | 0.03 | 0.02 | 83 | 1013.1 |
| 20260501181525 | 44 | 343 | 2.0 | 4.0 | 0.00 | 0.03 | 0.02 | 86 | 1013.0 |
| 20260501180021 | 43 | 12 | 1.0 | 3.0 | 0.00 | 0.03 | 0.02 | 86 | 1013.2 |
| 20260501174520 | 43 | 11 | 1.0 | 3.0 | 0.00 | 0.03 | 0.02 | 85 | 1013.2 |
| 20260501173019 | 42 | 318 | 1.0 | 3.0 | 0.00 | 0.03 | 0.02 | 84 | 1013.1 |
| 20260501171515 | 42 | 352 | 0.0 | 4.0 | 0.01 | 0.03 | 0.02 | 86 | 1013.2 |
| 20260501170017 | 42 | 322 | 0.0 | 3.0 | 0.01 | 0.03 | 0.02 | 85 | 1013.3 |
| 20260501164508 | 42 | 319 | 1.0 | 3.0 | 0.01 | 0.03 | 0.02 | 85 | 1013.5 |
| 20260501163019 | 42 | 339 | 2.0 | 6.0 | 0.02 | 0.03 | 0.02 | 85 | 1013.6 |
| 20260501161519 | 42 | 321 | 1.0 | 5.0 | 0.01 | 0.02 | 0.01 | 84 | 1013.6 |
| 20260501160017 | 43 | 300 | 1.0 | 6.0 | 0.01 | 0.02 | 0.01 | 83 | 1013.7 |
| 20260501154518 | 43 | 292 | 2.0 | 6.0 | 0.01 | 0.02 | 0.01 | 82 | 1013.7 |